KROZINGEN Weather Reports


Display with metric or nautical units.
time (UTC)temp
F
wind
direction
speed
MPH
gust
MPH
rain 1hr
in
rain 24hr
in
rain mn
in
humidity
%
barometer
mb
20260505073210 58 250 1.0 0.0 0.00 0.00 0.00 89 1010.1
20260505070211 56 238 2.0 0.0 0.00 0.00 0.00 91 1010.2
20260505063211 55 273 2.0 0.0 0.00 0.00 0.00 92 1010.3
20260505060212 54 198 0.0 0.0 0.00 0.00 0.00 93 1010.5
20260505053211 54 229 1.0 0.0 0.00 0.00 0.00 94 1010.5
20260505050211 53 227 1.0 0.0 0.00 0.00 0.00 94 1010.4
20260505040210 53 124 2.0 0.0 0.00 0.00 0.00 92 1010.4
20260505033211 53 300 1.0 0.0 0.00 0.00 0.00 93 1010.3
20260505030213 53 185 5.0 0.0 0.00 0.00 0.00 92 1010.4
20260505023211 53 117 1.0 0.0 0.00 0.00 0.00 93 1010.8
20260505020211 52 117 0.0 0.0 0.00 0.00 0.00 93 1011.1
20260505013211 53 241 0.0 0.0 0.00 0.00 0.00 93 1011.4
20260505010211 53 241 1.0 0.0 0.00 0.00 0.00 92 1011.6
20260505003208 54 127 2.0 0.0 0.00 0.00 0.00 90 1011.9
20260505000211 55 122 1.0 0.0 0.00 0.00 0.00 91 1012.2
20260504233209 55 103 0.0 0.0 0.00 0.00 0.00 92 1012.4
20260504230209 55 103 0.0 0.0 0.00 0.00 0.00 93 1012.7
20260504223214 55 101 0.0 0.0 0.00 0.00 0.00 92 1012.6
20260504220209 55 91 1.0 0.0 0.00 0.00 0.02 92 1012.6
20260504213209 55 137 1.0 0.0 0.00 0.00 0.02 92 1013.3
20260504210209 56 252 0.0 0.0 0.00 0.00 0.02 91 1013.4
20260504203209 57 129 1.0 0.0 0.00 0.00 0.02 90 1013.4
20260504200209 58 112 2.0 0.0 0.00 0.00 0.02 90 1013.3
20260504193209 58 130 1.0 0.0 0.00 0.00 0.02 89 1013.2
20260504190209 58 231 0.0 0.0 0.00 0.00 0.02 89 1012.9
20260504183209 59 118 1.0 0.0 0.00 0.00 0.02 87 1013.0
20260504180214 59 120 1.0 0.0 0.00 0.00 0.02 86 1013.4
20260504173209 60 233 3.0 0.0 0.00 0.00 0.02 83 1013.8
20260504170210 61 226 5.0 0.0 0.00 0.00 0.01 78 1014.0
20260504160210 65 224 3.0 0.0 0.00 0.00 0.00 68 1013.7
20260504150210 66 290 3.0 0.0 0.00 0.00 0.00 59 1013.4
20260504140209 68 210 1.0 0.0 0.00 0.00 0.00 51 1013.2
20260504130215 69 283 3.0 0.0 0.00 0.00 0.00 51 1013.3
20260504120210 69 262 5.0 0.0 0.00 0.00 0.00 49 1013.4
20260504110210 71 289 3.0 0.0 0.00 0.00 0.00 49 1013.6
20260504100212 68 257 5.0 0.0 0.00 0.00 0.00 51 1014.1
20260504080210 62 207 1.0 0.0 0.00 0.00 0.00 71 1014.7